N6EQ Weather Reports


time (UTC)temp
C
wind
direction
speed
KPH
gust
KPH
rain 1hr
cm
rain 24hr
cm
rain mn
cm
humidity
%
barometer
mb
20260901010024 37 221 19.3 29.0 0.00 0.00 0.00 30 947.7
20260901004523 36 146 19.3 41.8 0.00 0.00 0.00 31 947.7
20260901003022 36 146 17.7 37.0 0.00 0.00 0.00 35 947.7
20260901001522 36 152 25.7 37.0 0.00 0.00 0.00 34 947.7
20260901000028 37 116 20.9 41.8 0.00 0.00 0.00 35 947.8
20260831234519 37 17.7 38.6 0.00 0.00 0.00 29 947.9
20260831233018 37 22.5 41.8 0.00 0.00 0.00 28 947.7
20260831231515 37 20.9 37.0 0.00 0.00 0.00 30 948.0
20260831230017 37 19.3 35.4 0.00 0.00 0.00 32 948.1
20260831224510 37 166 20.9 37.0 0.00 0.00 0.00 33 948.4
20260831223007 37 20.9 40.2 0.00 0.00 0.00 30 948.6
20260831221504 37 24.1 43.5 0.00 0.00 0.00 30 948.6
20260831220003 37 12.9 38.6 0.00 0.00 0.00 31 948.8
20260831214505 36 27.4 40.2 0.00 0.00 0.00 32 948.9
20260831213001 36 120 14.5 37.0 0.00 0.00 0.00 32 949.1
20260831211505 36 169 24.1 43.5 0.00 0.00 0.00 32 949.5
20260831210001 37 22.5 53.1 0.00 0.00 0.00 31 949.7
20260831204605 37 33.8 49.9 0.00 0.00 0.00 31 950.0
20260831203133 36 27.4 48.3 0.00 0.00 0.00 31 950.1
20260831201605 36 22.5 45.1 0.00 0.00 0.00 34 950.3
20260831200137 36 195 29.0 41.8 0.00 0.00 0.00 31 950.4
20260831194559 36 170 25.7 46.7 0.00 0.00 0.00 31 950.7
20260831193048 37 201 19.3 46.7 0.00 0.00 0.00 29 950.8
20260831191547 36 205 29.0 48.3 0.00 0.00 0.00 28 950.9
20260831190045 36 22.5 37.0 0.00 0.00 0.00 28 951.0
20260831184545 36 20.9 49.9 0.00 0.00 0.00 28 950.9
20260831183039 36 153 30.6 38.6 0.00 0.00 0.00 28 951.0
20260831181545 35 136 24.1 41.8 0.00 0.00 0.00 30 951.1
20260831180034 35 139 22.5 41.8 0.00 0.00 0.00 32 951.2
20260831174531 34 207 16.1 41.8 0.00 0.00 0.00 36 951.3
20260831173033 33 203 16.1 40.2 0.00 0.00 0.00 37 951.3
20260831171528 34 207 14.5 33.8 0.00 0.00 0.00 38 951.3
20260831170033 33 136 16.1 33.8 0.00 0.00 0.00 38 951.3
20260831164525 33 188 17.7 35.4 0.00 0.00 0.00 38 951.3
20260831163021 33 169 20.9 30.6 0.00 0.00 0.00 37 951.3
20260831161521 33 178 20.9 30.6 0.00 0.00 0.00 37 951.2
20260831160018 33 240 11.3 24.1 0.00 0.00 0.00 38 951.1
20260831154515 32 232 11.3 19.3 0.00 0.00 0.00 41 951.2
20260831153013 31 209 6.4 17.7 0.00 0.00 0.00 42 951.1
20260831151511 31 225 9.7 12.9 0.00 0.00 0.00 44 951.0
20260831150009 30 241 3.2 11.3 0.00 0.00 0.00 44 950.9
20260831144509 30 180 0.0 4.8 0.00 0.00 0.00 45 950.9
20260831143008 30 130 0.0 4.8 0.00 0.00 0.00 46 950.7
20260831141506 29 134 1.6 4.8 0.00 0.00 0.00 47 950.5
20260831140004 29 132 0.0 3.2 0.00 0.00 0.00 47 950.1
20260831134600 29 149 0.0 3.2 0.00 0.00 0.00 47 950.0
20260831133058 29 168 0.0 8.0 0.00 0.00 0.00 47 949.8
20260831131600 28 150 3.2 6.4 0.00 0.00 0.00 48 949.5
20260831130054 29 124 0.0 6.4 0.00 0.00 0.00 47 949.3
20260831124553 29 141 0.0 4.8 0.00 0.00 0.00 47 949.4
20260831123049 29 179 0.0 1.6 0.00 0.00 0.00 46 949.2
20260831121549 30 107 0.0 0.0 0.00 0.00 0.00 46 949.1
20260831114548 30 207 0.0 0.0 0.00 0.00 0.00 46 948.9
20260831113050 30 124 0.0 0.0 0.00 0.00 0.00 46 949.1
20260831111543 30 209 0.0 1.6 0.00 0.00 0.00 45 949.1
20260831110042 30 210 1.6 9.7 0.00 0.00 0.00 44 949.1
20260831104542 30 238 0.0 4.8 0.00 0.00 0.00 43 949.1
20260831103042 30 245 0.0 6.4 0.00 0.00 0.00 43 948.9
20260831101540 31 236 4.8 14.5 0.00 0.00 0.00 42 949.1
20260831100038 30 196 0.0 0.0 0.00 0.00 0.00 43 949.1
20260831094536 30 111 0.0 0.0 0.00 0.00 0.00 43 949.1
20260831093035 30 167 0.0 8.0 0.00 0.00 0.00 42 949.0
20260831091536 30 0.0 9.7 0.00 0.00 0.00 42 948.9
20260831090033 31 0.0 4.8 0.00 0.00 0.00 42 948.8
20260831084532 30 103 0.0 0.0 0.00 0.00 0.00 41 948.9
20260831083032 30 0.0 0.0 0.00 0.00 0.00 41 948.8
20260831081530 30 0.0 0.0 0.00 0.00 0.00 42 948.8
20260831080033 30 210 0.0 0.0 0.00 0.00 0.00 41 948.8
20260831074529 30 0.0 0.0 0.00 0.00 0.00 41 948.9
20260831073027 30 115 0.0 0.0 0.00 0.00 0.00 41 948.8
20260831071524 30 0.0 0.0 0.00 0.00 0.00 42 948.8
20260831070022 30 0.0 0.0 0.00 0.00 0.00 43 948.6
20260831064522 30 0.0 0.0 0.00 0.00 0.00 43 948.6
20260831063021 30 0.0 1.6 0.00 0.00 0.00 45 948.5
20260831061520 30 0.0 8.0 0.00 0.00 0.00 44 948.5
20260831060018 31 1.6 8.0 0.00 0.00 0.00 44 948.5
20260831054518 31 0.0 6.4 0.00 0.00 0.00 45 948.5
20260831053019 31 3.2 9.7 0.00 0.00 0.00 44 948.6
20260831051523 31 1.6 12.9 0.00 0.00 0.00 43 948.6
20260831050013 31 8.0 16.1 0.00 0.00 0.00 41 948.6
20260831044514 32 232 8.0 17.7 0.00 0.00 0.00 40 948.6
20260831043011 32 210 6.4 20.9 0.00 0.00 0.00 38 948.5
20260831041510 34 188 4.8 27.4 0.00 0.00 0.00 36 948.3
20260831040009 35 243 3.2 19.3 0.00 0.00 0.00 36 948.0
20260831034509 35 116 16.1 30.6 0.00 0.00 0.00 33 947.5
20260831033015 36 113 19.3 32.2 0.00 0.00 0.00 31 947.2
20260831031512 36 116 17.7 29.0 0.00 0.00 0.00 31 947.0
20260831030005 37 116 19.3 30.6 0.00 0.00 0.00 31 946.8
20260831024504 37 149 12.9 22.5 0.00 0.00 0.00 27 946.5
20260831023003 38 173 16.1 27.4 0.00 0.00 0.00 22 946.4
20260831021505 38 239 6.4 17.7 0.00 0.00 0.00 19 946.1
20260831020002 38 224 6.4 20.9 0.00 0.00 0.00 20 946.1
20260831014501 39 221 14.5 22.5 0.00 0.00 0.00 19 946.2
20260831013105 40 148 12.9 27.4 0.00 0.00 0.00 19 946.2
20260831011600 40 243 11.3 22.5 0.00 0.00 0.00 19 946.2